Location: Unspecified
(0.0000°N, 0.0000°E)
Time: 11:37:48
(UTC+00:00)

Explorer 11/Cluster Stage 4 - Pass Details

Date: 02 October 2020
Orbit: 467 x 1258 km, 28.8° (Epoch: 28 October)

Event Time Altitude Azimuth Distance (km) Brightness Sun altitude
Rises 03:58:14 0° 331° (NNW) 3,761 - -27.7°
Exits shadow 04:01:23 - 347° (NNW) 3,099 9.4 -26.9°
Reaches altitude 10° 04:02:16 10° 353° (N) 2,960 9.4 -26.7°
Maximum altitude 04:06:17 15° 26° (NNE) 2,707 9.5 -25.7°
Drops below altitude 10° 04:10:32 10° 58° (ENE) 3,170 10.4 -24.6°
Sets 04:15:05 0° 79° (E) 4,189 11.6 -23.5°
